www.pogodaiklimat.ru

Погода и климат >> Архив погоды >> Канада >> Coral Harbour Arpt


ПОГОДА в Coral Harbour Arpt

  • Прогноз погоды в Coral Harbour Arpt
  • Монитор погоды в Coral Harbour Arpt
  • Климат города

АРХИВ ПОГОДЫ в Coral Harbour Arpt

Время (UTC), дата Ветер
(напр.,м/с)
 
Видим.   Явления Облачность Т
(С)
Тd
(С)
f
(%)
Тe
(С)
Тes
(С)
Комфортность P
(гПа)
Po
(гПа)
Тmin
(С)
Tmax
(С)
R
(мм)
R24
(мм)
S
(см)
03 18.06 Ю 3 24 км 8/0
[]
+4.9 +3.1 88 +1 +1 1004.4 996.6
06 18.06 СВ 6 24 км 6/0
[Ac As Ci fib]
+2.0 +0.8 92 -4 -4 1003.6 995.8 -0.3 +7.2 20
09 18.06 СВ 5 24 км 6/0 2000 м
[]
+2.2 +0.2 87 -3 -3 1003.2 995.4
12 18.06 С 6 24 км 8/6 1500 м
[Sc Ac As Ci fib]
+4.6 +2.6 87 -1 0 1003.6 995.8 +1.5 +7.2 10
15 18.06 СВ 7 24 км 9/9 300 м
[]
+6.4 +2.5 76 +2 +2 1005.0 997.2
18 18.06 С 6 24 км 6/1 300 м
[Sc Ac As Ci fib]
+5.5 +1.4 75 +1 +4 1006.5 998.6 +1.5 +6.8
21 18.06 С 5 24 км 4/4 300 м
[]
+5.4 +0.1 69 +1 +4 1007.9 1000.0
00 19.06 С 4 24 км 8/8 600 м
[Sc]
+4.5 +0.1 73 +1 +1 1008.7 1000.8 +1.5 +6.8
03 19.06 СЗ 3 24 км 8/8 600 м
[]
+3.1 +0.3 82 -0 -0 1008.7 1000.9
06 19.06 СЗ 4 24 км 9/9 600 м
[Sc]
+2.1 +0.1 87 -3 -3 1008.7 1000.8 +1.5 +6.8 13
09 19.06 СВ 3 24 км 9/9 300 м
[]
+2.1 +0.4 88 -2 -2 1008.9 1001.0
12 19.06 С 4 24 км 9/1 300 м
[Sc Ac As]
+3.7 +1.3 84 -1 -0 1009.2 1001.3 +1.8 +6.8 8
15 19.06 СВ 5 24 км 10/10 300 м
[]
+4.7 +1.1 77 0 0 1009.4 1001.5
18 19.06 С 4 24 км 10/9 300 м
[Sc]
+5.2 +1.8 79 +1 +2 1010.0 1002.1 +1.8 +5.6
21 19.06 С 5 24 км 10/10 600 м
[]
+5.2 +1.4 76 +1 +1 1010.8 1002.9
00 20.06 С 4 24 км 6/6 600 м
[Sc]
+5.2 +1.6 78 +1 +2 1011.2 1003.3 +2.0 +6.3
03 20.06 СЗ 3 24 км 9/9 600 м
[]
+3.1 +1.1 87 -1 -1 1011.7 1003.8
06 20.06 СЗ 5 24 км 9/6 600 м
[Sc Ac As]
+2.5 +0.3 85 -3 -3 1011.7 1003.8
09 20.06 СЗ 3 24 км 9/9 600 м
[]
+2.4 +0.3 86 -2 -2 1011.8 1003.9
12 20.06 СЗ 3 24 км 9/9 600 м
[Sc]
+4.2 +1.1 80 +1 +1 1011.7 1003.8 7
15 20.06 З 3 24 км 9/9 1000 м
[]
+5.9 +1.9 75 +3 +4 1010.4 1002.5
18 20.06 0 24 км 5/5 1000 м
[Sc Ci fib]
+6.7 +1.5 69 1009.0 1001.1 +7.1
21 20.06 Ю 5 24 км 8/8 1000 м
[]
+4.6 +1.6 81 0 +1 1007.3 999.4
00 21.06 ЮВ 2 24 км 8/0
[Ac trans Ci fib]
+3.4 +1.9 90 0 +1 1005.1 997.3 +1.7 +7.1
03 21.06 ЮВ 2 24 км 9/0
[]
+2.0 +1.2 94 -2 -2 1002.9 995.1
06 21.06 Ю 4 16 км слабый дождь 10/10 50 м
[St]
+2.2 +1.9 98 -3 -3 1000.7 992.9 +1.7 +7.1 0.6 181
09 21.06 С 7 24 км 5/5 50 м
[]
+3.1 +1.2 87 -3 -3 999.9 992.1
12 21.06 С 8 24 км {дождь} 1/1 600 м
[Sc]
+2.5 -0.7 79 -4 -4 1000.7 992.9 +7.1 0.0 6
15 21.06 0 24 км 6/6 600 м
[]
+4.7 -0.6 68 1000.5 992.7
18 21.06 СЗ 12 24 км {дождь} 5/5 600 м
[Sc]
+4.9 -0.2 70 -2 -2 999.8 992.0 0.0 6
21 21.06 СЗ 11 24 км 4/4 600 м
[]
+5.4 +0.1 69 -1 -1 998.9 991.1
00 22.06 СЗ 11 24 км {дождь} 8/8 600 м
[Sc]
+3.7 +0.2 78 -3 -3 998.0 990.2 +5.8 0.0 5
03 22.06 СЗ 10 24 км 3/3 600 м
[]
+2.2 -0.6 82 -5 -5 997.9 990.1
06 22.06 СЗ 8 24 км 3/1 600 м
[Sc Ci fib]
+0.5 -1.7 85 -7 -7 998.3 990.5 212
09 22.06 0 24 км 5/5 300 м
[]
+1.3 -0.4 88 998.3 990.5
12 22.06 С 12 24 км 6/6 300 м
[Sc]
+2.4 -0.4 82 -6 -6 998.6 990.8 +0.4 4
15 22.06 С 13 24 км 8/8 600 м
[]
+4.4 +0.6 76 -3 -3 1000.1 992.3
18 22.06 С 15 24 км 9/9 600 м
[Sc]
+4.9 +1.3 77 -3 -3 1001.5 993.7 +0.4 +4.9
21 22.06 С 13 24 км 8/8 600 м
[]
+4.9 +0.9 75 -2 -2 1004.0 996.2
00 23.06 0 24 км 8/8 600 м
[Sc Ac trans]
+4.5 +1.1 79 1005.9 998.1 +0.4 +5.0
03 23.06 С 4 24 км 9/9 600 м
[]
+3.0 +0.5 84 -2 -2 1007.4 999.5
06 23.06 С 6 24 км 9/4 1500 м
[Sc Ac As]
+1.8 -0.2 87 -4 -4 1008.3 1000.4 +0.4 +5.0 142
09 23.06 С 5 24 км 6/6 1000 м
[]
+1.8 -0.2 87 -4 -4 1010.0 1002.1
12 23.06 0 24 км 5/1 600 м
[Sc Ac As Ci fib]
+3.3 -0.2 78 1010.7 1002.8 +1.5 +5.0 1
15 23.06 С 10 24 км 4/4 600 м
[]
+5.0 0.0 70 -1 -1 1011.6 1003.7
18 23.06 С 10 24 км 8/8 600 м
[Sc Ac trans]
+5.8 +0.4 68 -0 0 1012.6 1004.7 +1.5 +6.0
21 23.06 С 10 24 км 8/8 600 м
[]
+6.1 -0.6 62 0 +1 1013.6 1005.7
00 24.06 СЗ 7 24 км 9/9 1000 м
[Sc]
+4.7 -1.2 66 -0 -0 1014.8 1006.9 +1.5 +6.5
03 24.06 СЗ 6 24 км 9/9 1000 м
[]
+3.8 +0.5 79 -1 -1 1015.4 1007.5
06 24.06 СЗ 4 24 км 9/9 1000 м
[Sc]
+2.7 +0.5 85 -2 -2 1015.9 1008.0 +1.5 +6.5 1
09 24.06 СЗ 3 24 км 10/10 1000 м
[]
+2.6 +0.7 87 -2 -2 1016.3 1008.4
12 24.06 СЗ 6 24 км 6/0 1500 м
[Ac und]
+6.6 +2.9 77 +2 +3 1016.2 1008.3 +2.3 +6.5
15 24.06 СЗ 8 24 км 3/3 1500 м
[]
+8.7 +2.4 65 +5 +6 1015.9 1008.0
18 24.06 З 8 24 км 1/1 600 м
[Sc Ci fib]
+10.8 +2.3 56 +7 +10 1015.0 1007.1 +2.3 +11.1
21 24.06 З 10 24 км 4/4 600 м
[]
+11.7 +4.8 63 +8 +8 1014.2 1006.3

 

Местоположение метеостанции Coral Harbour Arpt (Канада): широта 64.20 долгота -83.36 высота над уровнем моря 64 м.

В архиве по умолчанию представлена погода в Coral Harbour Arpt за последнюю неделю. Архивные данные за месяц целиком и за предыдущие месяцы, начиная с января 2011 года, Вы можете получить, выбрав интересующий диапазон дат из раскрывающегося списка и нажав кнопку "Ввод!".


*Определитесь, кто Вы:
робот инопланетянин человек

Внимание! Время в таблицах - всемирное. Для получения местного времени необходимо прибавить поправку, которая в Coral Harbour Arpt равна -5 ч.

Смотрите также архив погоды в соседних городах и на ближайших метеорологических станциях:

Погода в Cape Dorset Climate (Канада) (330 км)
Погода в Wager Bay (Канада) (340 км)
Погода в Rankin Inlet (Канада) (460 км)
Погода в Hall Beach Climate (Канада) (518 км)
Погода в Pelly Bay (Канада) (549 км)
Погода в Kugaaruk climate (Канада) (560 км)
Погода в Rowley Island (Канада) (575 км)
Погода в Parc National Des Pingualuit (Канада) (589 км)
Погода в Baker Lake Climate (Канада) (610 км)
Погода в Baker Lake Airport (Канада) (613 км)

Пояснения к столбцам:

Ветер - указаны скорость ветра в м/с - средняя за 10 мин, порывы в срок и между сроками (в фигурных скобках) и направление, откуда дует ветер: С - северный, СВ - северо-восточный, В - восточный, ЮВ - юго-восточный, Ю - южный, ЮЗ - юго-западный, З - западный, СЗ - северо-западный.
Видимость - горизонтальная дальность видимости в метрах или километрах. При видимости от 1 до 10 км при отсутствии осадков обычно наблюдается дымка, при ухудшении видимости до 1 км и менее - туман. В сухую погоду видимость может ухудшаться дымом, пылью или мглою.
Явления - указаны атмосферные явления, наблюдавшиеся в срок или в последний час перед сроком; фигурными скобками обозначены явления, наблюдавшиеся между сроками (за 1-3 часа до срока); квадратными скобками обозначены град или гололедные отложения с указанием их диаметра в мм.
Облачность - указаны через наклонную черту общая и нижняя облачность в баллах и высота нижней границы облаков в метрах; квадратными скобками обозначены формы облаков: Ci - перистые, Cs - перисто-слоистые, Cc - перисто-кучевые, Ac - высококучевые, As - высокослоистые, Sc - слоисто-кучевые, Ns - слоисто-дождевые, Cu - кучевые, Cb - кучево-дождевые. Подробнее классификацию облаков см. в Атласе облаков (PDF).
T - Температура воздуха - температура, измеренная на высоте 2 м над землей.
Td - Температура точки росы - температура, при понижении до которой содержащийся в воздухе водяной пар достигнет насыщения.
f - Относительная влажность воздуха - влажноcть воздуха, измеренная на высоте 2 м над землей.
Te - Эффективная температура - температура, которую ощущает одетый по сезону человек в тени. Характеристика душности погоды. При расчете учитывается влияние влажности воздуха и скорости ветра на теплоощущения человека.
Tes - Эффективная температура на солнце - температура, которую ощущает человек, с поправкой на солнечный нагрев. Характеристика знойности погоды. Зависит от высоты солнца над горизонтом, облачности и скорости ветра. Ночью, в пасмурную погоду, а также при ветре 12 м/с и более поправка равна нулю.
P - Атмосферное давление - приведенное к уровню моря атмосферное давление.
Po - Атмосферное давление - измеренное на уровне метеостанции атмосферное давление.
Tmin - Минимальная температура - минимум температуры воздуха на высоте 2 м над землей.
Tmax - Максимальная температура - максимум температуры воздуха на высоте 2 м над землей.
R - Количество осадков - Количество выпавших осадков за период времени, мм. При наведении курсора мыши на число - период времени, за который выпало указанное количество осадков.
R24 - Количество осадков - Количество выпавших осадков за 24 часа, мм.
S - Снежный покров - Высота снежного покрова, см. При наведении курсора мыши на число - состояние снежного покрова и степень покрытия местности в баллах.